Location: Cabeza de los Veneras
(40.2000°N, 5.2000°W)
Time: 19:05:31
(UTC+00:00)

ISS - Visible Passes

Search period start: 23 June 2024 00:00
Search period end: 03 July 2024 00:00
Orbit: 410 x 425 km, 51.6° (Epoch: 23 June)

Date Brightness Start Highest point End Pass type
(mag) Time Alt. Az. Time Alt. Az. Time Alt. Az.
23 Jun -2.7 03:21:16 22° S 03:22:44 34° SE 03:25:48 10° ENE visible
24 Jun -1.8 02:35:01 19° SE 02:35:01 19° SE 02:37:18 10° E visible
24 Jun -3.0 04:08:08 10° WSW 04:11:21 45° NNW 04:14:36 10° NE visible
25 Jun -3.8 03:21:36 28° WSW 03:23:13 77° NW 03:26:34 10° NE visible
26 Jun -3.6 02:35:11 59° SE 02:35:11 59° SE 02:38:24 10° ENE visible
26 Jun -1.7 04:09:23 10° WNW 04:12:06 22° NNW 04:14:48 10° NNE visible
27 Jun -1.6 01:48:42 20° E 01:48:42 20° E 01:50:03 10° ENE visible
27 Jun -2.3 03:21:35 15° W 03:23:47 31° NNW 03:26:48 10° NE visible
28 Jun -3.1 02:35:01 43° WNW 02:35:29 47° NNW 02:38:44 10° NE visible
28 Jun -1.1 04:10:56 10° NW 04:12:53 14° NNW 04:14:50 10° NNE visible
29 Jun -2.4 01:48:23 38° NE 01:48:23 38° NE 01:50:35 10° NE visible
29 Jun -1.3 03:22:04 10° WNW 03:24:25 18° NNW 03:26:47 10° NNE visible
30 Jun -1.0 01:01:39 14° ENE 01:01:39 14° ENE 01:02:16 10° ENE visible
30 Jun -1.7 02:34:32 17° WNW 02:35:58 23° NNW 02:38:42 10° NNE visible
30 Jun -0.8 04:12:20 10° NNW 04:13:40 12° N 04:14:59 10° NNE visible
01 Jul -2.2 01:47:45 32° NNW 01:47:45 32° NNW 01:50:35 10° NE visible
01 Jul -0.8 03:23:29 10° NW 03:25:04 13° N 03:26:40 10° NNE visible
02 Jul -1.5 01:00:52 23° NNE 01:00:52 23° NNE 01:02:23 10° NE visible
02 Jul -0.9 02:34:30 10° NW 02:36:29 15° NNW 02:38:28 10° NNE visible
02 Jul -0.7 04:12:51 10° NNW 04:14:20 12° N 04:15:49 10° NNE visible
